This is the latest recevied weather packets stored in our database for station/object KC5CAM-13. If no packets are shown the sender has not sent any weather packets the latest 10 day(s).
| Time | Temp. | Humidity | Pressure | Rain* | Wind** | Luminosity | Snow |
|---|---|---|---|---|---|---|---|
| 1777486610 | 16.67° C | 79% | 1016.7 hPa | 0 mm | - | 93 W/m² | - |
| 1777486309 | 16.67° C | 78% | 1016.5 hPa | 0 mm | - | 117 W/m² | - |
| 1777486006 | 16.67° C | 79% | 1016.8 hPa | 0 mm | - | 116 W/m² | - |
| 1777485703 | 16.67° C | 79% | 1016.9 hPa | 0 mm | - | 104 W/m² | - |
| 1777485403 | 16.67° C | 79% | 1016.8 hPa | 0 mm | - | 90 W/m² | - |
| 1777485099 | 16.67° C | 80% | 1016.9 hPa | 0 mm | - | 80 W/m² | - |
| 1777484796 | 16.67° C | 79% | 1017.2 hPa | 0 mm | - | 82 W/m² | - |
| 1777484492 | 16.67° C | 79% | 1017.2 hPa | 0 mm | - | 80 W/m² | - |
| 1777484190 | 16.67° C | 79% | 1017.1 hPa | 0 mm | - | 93 W/m² | - |
| 1777483886 | 17.22° C | 79% | 1017.2 hPa | 0 mm | - | 85 W/m² | - |
| 1777483582 | 16.67° C | 79% | 1017.4 hPa | 0 mm | - | 148 W/m² | - |
| 1777483282 | 17.22° C | 79% | 1017.3 hPa | 0 mm | - | 111 W/m² | - |
| 1777482979 | 17.22° C | 78% | 1017.2 hPa | 0 mm | - | 113 W/m² | - |
| 1777482675 | 17.78° C | 77% | 1017.1 hPa | 0 mm | - | 143 W/m² | - |
| 1777482372 | 18.33° C | 76% | 1017.2 hPa | 0 mm | - | 257 W/m² | - |
| 1777482069 | 17.78° C | 77% | 1017.1 hPa | 0 mm | - | 455 W/m² | - |
| 1777481768 | 16.67° C | 79% | 1017.5 hPa | 0 mm | - | 419 W/m² | - |
| 1777481464 | 16.11° C | 81% | 1016.7 hPa | 0 mm | - | 181 W/m² | - |
| 1777481160 | 16.11° C | 81% | 1017.4 hPa | 0 mm | - | 132 W/m² | - |
| 1777480857 | 16.11° C | 82% | 1018 hPa | 0 mm | - | 61 W/m² | - |
| 1777480554 | 16.11° C | 81% | 1017.7 hPa | 0 mm | - | 77 W/m² | - |
| 1777480251 | 16.11° C | 81% | 1017.7 hPa | 0 mm | - | 62 W/m² | - |
| 1777479947 | 16.11° C | 82% | 1017.2 hPa | 0 mm | - | 120 W/m² | - |
| 1777479643 | 16.11° C | 82% | 1016.6 hPa | 0 mm | - | 225 W/m² | - |
| 1777479342 | 16.11° C | 83% | 1017.3 hPa | 0 mm | - | 123 W/m² | - |
* Rain latest hour (hover to see other rain measurements)
** Current wind speed in m/s (hover to see current wind gust speed)